Погода в Мальцево

Россия / Кемеровская область (Кузбасс)     55°57′25″N   84°49′53″E
темп.,
°C
ветер,
м/с
пор.,
м/с
влажн.,
%
обл.,
%
осадки,
мм/ч
давл.,
гПа
погр.,
м
22 апреля, чт
чт2201:00−4св379095 0.0 1031175
04:00−5ссв36905 0.0 1033137
07:00−5ссв38915 0.0 1037223
10:00−1ссв577211 0.0 1039781
13:00+2ссв5653100 0.1 10401644
16:00+2ссв5656100 0.1 10411489
19:00+2ссв46656 0.3 1043582
22:00−2ссв38875 0.0 1045171
23 апреля, пт
пт2301:00−3ссв39935 0.0 1045218
04:00−3с37945 0.0 1045196
07:00−3ссв37935 0.0 1046216
10:00+2св57695 0.0 1046880
13:00+4св575099 0.0 10441696
16:00+5св565199 0.0 10431727
19:00+4ссв47655 0.0 1043315
22:000ссв310865 0.0 1044217
24 апреля, сб
сб2401:00−2ссв39915 0.0 1043194
04:00−2ссв38915 0.0 1041190
07:00−2ссв398922 0.0 1040254
10:00+3ссв5769100 0.0 1038759
13:00+5ссв5658100 0.0 10361251
16:00+6ссв5656100 0.0 10341392
19:00+4с367046 0.0 1034403
22:00+1с33825 0.0 103441
25 апреля, вс
вс2501:000с238638 0.0 103450
04:000ссз228811 0.0 103346
07:000ссз23865 0.0 1034109
10:00+5ссз236718 0.0 1034574
13:00+7сз2354100 0.0 10331321
16:00+9сз235083 0.0 10321480
19:00+8сз2462100 0.0 1032231
22:00+4с1171100 0.0 103210
26 апреля, пн
пн2601:00+4ююв1174100 0.0 103210
04:00+3ююз2277100 0.0 103211
07:00+3ююз2379100 0.0 103244
10:00+7ююз346497 0.0 1031431
13:00+10юз4551100 0.0 10301284
16:00+11юз4645100 0.0 10291579
19:00+11ююз475582 0.0 1028336
22:00+7ю41071100 0.0 1028198